Theta_e
326 316 312 312 302 297 291 295 300 302 303 307 311 310 309 312 309 303 326 335 339 341 344 344 347 350 349 349 349 349 348 347 345 344 343 342 340 338 338 337 339 336 335 335 334 334 334 335 335
316 313 311 307 299 296 292 295 300 303 307 314 313 311 311 309 321 324 328 337 340 342 343 343 345 349 349 348 349 348 348 348 345 343 343 342 340 339 338 339 339 338 336 334 334 334 334 334 334
309 309 304 303 296 294 294 296 301 305 308 306 308 313 313 313 321 326 330 338 340 341 343 343 345 348 348 348 348 348 348 347 346 344 342 342 339 339 339 337 337 338 338 336 334 334 334 333 333
305 303 300 298 295 298 297 299 306 306 305 306 309 309 315 323 324 328 336 338 338 340 341 342 345 348 348 348 348 347 346 346 345 344 342 341 340 341 340 338 334 336 340 337 334 333 332 331 330
302 297 292 292 294 297 299 304 306 304 305 306 308 306 311 323 328 334 335 337 336 337 338 342 344 346 347 347 347 347 346 345 344 345 344 343 342 340 340 339 337 333 334 336 334 332 332 330 329
297 295 289 287 291 294 301 305 305 303 303 306 310 312 314 324 328 331 334 332 337 336 338 341 337 341 343 345 345 344 344 344 342 342 343 342 341 339 338 338 338 337 332 332 333 332 331 330 329
296 292 288 287 289 292 302 306 303 304 303 305 314 309 312 319 327 330 331 332 335 336 337 338 338 337 336 339 340 341 343 342 341 341 341 339 336 336 337 336 337 337 336 333 334 334 332 331 329
298 294 289 289 288 291 297 305 307 306 305 310 316 309 310 321 326 331 332 331 332 334 336 336 336 336 335 335 333 335 338 338 338 337 335 332 332 333 333 331 334 336 337 336 334 334 333 331 331
299 290 287 289 289 291 298 302 306 308 307 310 312 315 317 326 327 329 329 330 332 334 334 333 333 333 333 333 331 330 332 333 333 332 329 326 326 326 326 326 329 334 333 335 335 334 334 332 331
294 287 289 293 292 292 298 300 302 304 309 310 313 318 322 325 325 325 327 328 329 330 333 333 331 331 331 334 331 330 331 330 330 329 327 326 324 325 325 322 325 329 329 331 333 333 331 327 322
295 289 291 293 298 302 300 299 305 302 303 310 312 316 323 324 323 324 326 329 330 331 332 332 331 331 330 330 328 328 327 326 326 326 325 325 324 322 322 321 321 320 320 322 324 323 322 321 320
293 297 295 297 302 302 298 301 301 302 306 307 315 321 323 323 323 322 324 327 329 329 330 332 331 330 329 329 327 327 326 325 324 323 325 323 321 320 320 319 319 318 319 319 318 318 318 318 320
293 292 296 297 298 298 301 297 297 300 306 307 318 322 322 323 324 324 325 327 329 328 329 331 332 331 331 329 328 326 326 325 325 324 324 324 321 320 319 319 319 318 317 317 316 316 316 316 317
291 294 294 294 295 297 299 295 298 298 304 309 318 319 321 323 323 322 322 324 326 329 329 331 332 332 332 331 329 328 327 326 324 323 324 324 323 321 320 320 319 318 318 318 317 316 316 315 316
294 290 291 292 293 294 297 291 295 298 301 303 314 317 319 321 322 322 324 324 325 328 329 329 331 332 331 330 328 328 329 329 328 327 323 324 324 322 321 320 319 319 319 318 317 316 316 315 315
288 287 283 288 293 295 292 284 290 293 295 297 300 309 314 318 321 323 324 325 323 324 326 329 332 330 330 331 329 328 328 327 327 329 329 325 324 323 321 320 320 320 319 318 317 317 315 315 314
284 278 282 285 291 293 290 285 290 292 292 291 291 296 303 311 316 320 323 325 325 324 325 328 330 329 330 330 330 329 327 326 327 327 328 327 328 325 323 321 321 320 319 317 318 316 316 314 314
281 279 281 282 287 290 289 288 289 290 291 291 291 292 293 298 306 315 320 323 326 325 325 327 329 330 329 329 328 326 325 325 325 326 326 327 327 328 326 326 325 322 321 319 316 317 315 316 316
285 283 280 283 287 287 287 288 292 292 290 291 291 290 290 293 297 299 303 315 321 322 323 325 326 329 329 326 325 325 326 327 326 326 326 326 327 327 328 328 326 324 322 322 321 319 317 315 314
284 281 280 285 289 286 283 285 289 289 290 291 292 290 290 290 293 297 297 297 313 321 322 323 325 327 328 329 328 326 327 327 328 327 327 327 327 326 326 326 326 326 325 323 323 321 320 319 317
285 282 282 283 287 285 284 281 285 288 289 290 291 292 290 291 291 293 295 296 297 310 319 322 324 326 328 328 326 322 323 320 325 327 326 326 326 326 326 326 327 325 326 325 325 323 321 320 319
282 288 287 286 283 277 281 274 280 283 284 287 290 291 292 293 292 292 292 293 296 301 312 320 323 324 326 327 326 325 325 323 323 325 326 325 325 324 325 326 325 324 323 322 320 321 320 321 319
285 288 287 286 281 279 277 276 279 282 282 285 288 288 289 290 291 292 294 296 296 298 302 308 310 313 320 323 325 324 323 324 321 321 321 321 321 324 324 324 323 323 322 322 321 319 319 321 320
291 286 285 283 280 273 277 277 276 281 283 286 288 287 289 290 291 290 293 295 295 296 298 299 303 305 307 313 318 318 319 318 316 316 316 318 318 319 321 321 322 321 321 321 321 321 323 322 322
288 283 271 270 268 271 277 276 279 284 286 286 287 288 289 290 292 292 292 293 294 296 297 302 301 302 304 304 306 311 314 314 314 314 314 314 314 314 316 318 318 320 320 321 320 320 321 321 320
287 284 275 268 270 273 279 275 280 286 289 290 291 290 290 290 292 293 293 295 298 300 301 302 301 300 302 303 301 302 306 307 308 308 310 310 311 311 309 313 317 319 321 321 321 322 321 323 321
288 283 286 279 270 271 277 280 285 288 288 289 290 290 289 289 290 291 293 295 297 298 298 298 297 297 297 297 297 297 298 298 298 299 300 299 300 302 301 302 303 304 307 310 311 317 316 315 317
290 290 281 278 268 266 275 277 279 283 284 288 289 290 292 291 290 292 295 295 294 294 295 296 296 295 295 295 295 295 294 295 295 295 295 296 298 299 299 300 301 302 303 303 303 304 304 304 305
287 285 286 284 278 271 270 275 282 284 286 286 288 291 290 291 290 293 293 293 293 293 292 292 292 292 291 290 290 290 290 290 290 290 291 292 294 295 296 297 298 299 299 299 299 299 297 296 296
290 287 287 280 273 275 277 276 285 286 287 287 287 289 289 290 292 292 292 291 290 288 287 287 288 288 287 287 286 285 285 285 285 286 287 289 289 290 291 292 293 293 294 294 293 292 292 291 291
Wind_Speed
8 5 2 5 4 5 2 5 3 4 3 1 2 3 7 3 5 5 2 7 12 12 10 11 13 14 15 14 14 15 15 15 16 16 16 15 14 14 15 15 14 13 13 13 12 12 11 11 10
6 3 5 3 5 2 5 3 6 5 5 7 5 3 4 2 2 3 7 7 15 13 10 10 12 14 15 15 14 14 15 15 15 15 15 14 14 15 14 13 12 15 14 13 12 11 10 10 9
3 3 4 5 4 5 5 4 7 1 5 2 4 4 4 3 0 8 2 12 12 11 10 9 12 15 15 14 13 12 12 14 15 14 13 14 13 13 13 13 9 10 15 13 11 9 8 8 8
4 5 5 4 5 6 6 6 8 8 2 3 4 5 2 2 6 6 12 12 11 10 9 11 12 12 14 14 14 13 13 12 13 14 14 14 13 9 13 13 10 6 16 14 12 9 7 6 6
5 3 3 2 3 3 4 4 7 6 5 4 4 3 2 2 5 12 12 10 10 7 6 10 13 13 13 13 13 12 12 12 11 12 13 12 12 9 9 14 13 7 5 13 10 8 6 4 4
5 3 3 2 4 4 2 5 5 5 3 4 5 7 3 2 8 8 9 9 8 9 6 6 9 11 12 13 12 12 11 12 11 10 10 11 9 10 7 8 10 12 7 4 8 7 5 3 2
5 4 4 3 4 5 3 6 6 7 5 5 9 7 2 3 6 8 8 7 7 8 8 6 6 7 10 11 11 11 11 11 10 10 9 10 9 8 7 7 6 9 10 9 9 8 6 4 2
5 4 4 3 4 4 2 6 4 6 6 2 4 6 5 5 9 9 7 6 6 6 7 7 6 6 6 6 10 10 11 11 10 10 9 9 9 8 7 7 6 5 6 9 8 6 7 5 4
3 4 4 5 6 4 2 2 3 2 6 1 3 6 4 14 13 9 7 5 6 6 6 5 5 5 5 5 5 7 8 10 10 7 8 7 4 5 6 5 5 6 4 3 7 7 6 6 5
4 4 10 6 5 3 1 1 2 2 4 3 2 2 6 16 15 14 14 14 12 13 10 7 6 6 5 4 5 5 4 3 4 5 5 4 5 4 4 5 6 6 6 6 5 6 6 4 2
5 7 6 4 3 2 0 1 5 1 4 7 10 7 13 13 12 13 12 15 16 14 10 9 7 6 6 4 3 2 2 3 3 5 4 4 3 3 3 2 2 2 4 3 3 3 2 3 3
4 6 6 4 5 3 3 0 2 3 5 2 8 12 16 15 16 16 14 13 14 13 12 11 9 8 7 4 4 4 3 3 3 4 5 4 3 4 4 3 4 4 3 5 5 3 4 4 5
4 4 6 4 5 4 2 5 3 6 10 6 7 9 15 16 16 11 10 9 10 13 13 12 11 10 9 7 5 4 5 4 5 4 5 4 4 4 4 4 3 4 3 3 4 4 4 5 5
4 3 1 3 4 3 5 3 4 8 4 3 10 14 12 15 17 8 8 13 14 13 14 12 12 11 9 9 8 7 6 6 4 5 6 7 5 4 4 4 4 4 4 4 4 5 4 5 4
1 3 3 5 4 5 5 4 11 10 1 1 7 8 7 10 8 15 16 14 13 11 10 13 13 11 11 10 8 6 6 6 7 7 7 8 7 7 6 5 4 5 4 5 4 4 3 4 3
3 3 3 2 8 5 8 9 8 4 5 11 6 6 7 7 13 11 9 11 9 8 11 11 10 11 11 10 7 5 5 5 5 5 6 9 8 7 6 5 6 5 4 4 4 4 4 4 4
3 4 4 6 9 4 6 7 5 3 7 7 5 7 7 8 9 9 10 11 11 13 12 11 12 12 13 10 7 6 6 5 4 4 5 6 8 8 6 5 5 5 4 4 4 4 4 4 5
7 5 5 5 2 4 5 8 7 3 3 5 6 7 7 8 13 12 9 10 11 11 12 12 11 12 11 7 4 3 3 4 4 4 5 6 6 7 7 5 6 5 5 4 3 6 4 5 5
5 4 5 4 2 3 7 8 14 8 4 9 9 9 9 9 9 6 8 8 8 8 10 12 12 13 9 5 5 4 7 7 5 5 6 6 6 6 8 5 4 4 5 7 6 4 6 4 4
2 3 3 4 3 4 4 9 13 5 8 9 11 10 10 6 7 9 9 8 10 14 12 12 13 12 11 9 7 4 5 5 7 5 6 7 8 7 7 7 7 7 6 7 7 7 4 4 5
5 5 3 2 4 2 5 8 7 6 6 8 10 10 7 11 11 10 10 10 7 9 12 13 13 13 12 11 4 3 3 2 3 4 6 8 10 9 9 7 7 6 7 6 7 6 8 7 4
5 7 6 3 2 4 2 8 6 5 7 6 12 12 16 14 10 8 9 8 10 10 8 12 13 13 12 12 9 10 9 9 6 6 6 6 9 8 9 10 9 7 5 6 5 5 6 6 8
6 6 7 5 3 3 2 3 9 3 5 10 12 10 10 10 10 13 14 15 9 7 8 7 7 6 6 9 11 9 9 6 3 3 6 6 5 8 8 8 7 8 6 7 7 5 6 6 6
3 6 7 5 3 4 7 7 5 4 7 7 6 4 8 8 9 11 8 7 7 4 4 4 7 7 7 7 7 7 7 6 4 4 4 4 3 4 6 6 7 6 7 8 7 8 10 9 8
3 5 3 3 2 7 1 5 7 8 9 4 9 10 9 6 7 7 7 6 6 7 4 4 4 5 5 4 3 2 4 4 4 2 3 4 3 3 5 5 6 6 7 7 7 8 9 9 8
13 9 6 8 6 4 2 8 7 6 7 7 8 9 10 8 4 4 4 2 5 7 7 8 9 8 8 8 8 7 7 4 3 3 2 2 2 3 4 4 4 5 5 6 6 6 7 6 6
6 11 5 5 2 4 5 7 9 6 8 9 10 9 9 7 6 5 7 8 8 9 9 9 10 9 10 9 8 9 8 9 7 7 6 4 5 4 6 6 6 6 5 4 3 1 2 2 2
8 8 4 2 3 4 3 3 5 4 8 10 14 13 14 10 8 8 8 10 10 11 10 13 11 11 9 9 9 9 9 9 8 8 9 8 7 7 7 7 6 6 6 6 5 4 4 4 3
5 6 5 5 6 6 1 5 4 7 6 7 7 10 13 13 10 10 10 11 11 11 11 11 11 11 11 10 10 10 9 9 10 9 9 8 8 9 9 8 7 7 7 7 5 5 5 5 5
12 8 13 9 4 2 3 5 2 8 6 6 6 7 8 11 11 11 11 12 13 13 12 12 11 12 10 9 10 11 10 10 10 9 9 9 9 9 9 8 7 7 6 6 6 5 5 5 6
Wind_Direction
319 334 117 52 68 66 236 241 175 172 154 237 87 154 162 108 162 208 313 152 138 150 155 155 161 153 150 146 143 146 148 144 140 137 133 129 123 121 121 125 125 113 110 108 105 103 101 96 82
306 134 44 91 98 130 263 238 196 199 157 130 90 72 55 146 140 115 117 168 150 150 154 158 156 153 149 150 147 151 151 146 147 145 140 137 135 135 133 123 127 134 120 116 110 106 105 99 88
327 60 94 107 111 179 216 209 176 179 165 123 92 55 148 194 130 160 196 149 146 150 155 156 155 152 151 153 149 148 152 152 152 149 148 145 144 146 137 117 100 126 127 124 121 118 114 108 99
17 12 29 100 201 242 207 187 169 145 191 73 121 101 333 230 165 182 140 142 146 149 148 151 154 156 156 153 154 155 155 156 157 157 154 154 150 147 132 119 127 164 142 132 133 136 137 126 110
28 58 59 87 257 262 240 182 157 152 170 141 145 198 300 15 98 130 136 141 147 142 143 158 157 160 158 159 160 159 158 159 160 165 160 159 159 151 138 147 148 150 140 137 139 148 150 135 91
30 90 59 228 256 277 200 148 157 152 194 154 87 136 196 71 123 149 140 148 148 140 144 159 160 156 156 163 159 160 161 161 165 168 173 157 156 144 146 142 159 153 165 144 153 155 153 141 103
118 92 199 193 262 304 162 135 174 173 158 241 145 133 262 169 157 142 131 128 140 143 146 149 158 163 160 158 161 162 164 165 164 163 168 156 152 150 152 160 155 181 175 179 162 166 172 179 197
109 97 157 223 207 244 337 174 161 171 202 88 162 181 225 191 141 123 115 127 134 143 157 162 160 163 165 171 173 174 173 169 170 170 166 162 165 167 178 191 188 187 190 182 193 171 183 207 230
127 72 209 212 165 236 324 128 146 154 126 246 183 158 219 129 128 129 131 133 152 166 164 161 164 167 162 167 179 176 181 175 172 174 176 167 166 176 183 190 207 211 208 197 195 214 206 216 238
118 154 218 206 188 206 307 2 315 160 125 256 244 342 141 139 156 159 170 177 184 188 190 182 168 170 161 172 163 175 171 175 174 175 179 170 176 185 182 200 219 229 230 238 240 228 229 237 252
169 201 197 226 196 238 238 275 321 180 209 213 209 165 160 157 165 172 180 185 186 189 192 187 183 174 167 175 165 170 162 165 185 185 180 184 175 189 190 195 223 230 250 244 263 274 258 233 239
163 228 180 183 175 158 223 190 309 208 234 53 221 180 159 171 179 183 185 186 186 184 190 186 186 183 182 170 174 174 172 178 185 197 193 178 186 198 206 205 214 213 215 221 221 225 237 246 248
213 214 186 202 180 204 144 248 237 261 267 303 150 161 183 181 190 190 192 187 189 194 191 191 185 190 188 182 177 175 184 185 194 191 196 183 192 200 194 211 211 216 215 223 230 229 236 239 242
228 178 146 228 211 209 174 225 147 257 269 208 169 184 196 192 192 178 181 192 198 199 198 189 190 189 184 188 184 189 188 191 190 195 199 196 193 195 201 212 217 218 203 207 213 220 228 237 231
125 176 331 228 201 227 157 253 220 228 71 38 197 203 209 206 184 204 198 201 199 208 200 196 188 184 185 190 186 185 180 185 195 199 199 197 199 202 197 206 213 215 205 211 224 238 239 253 244
127 57 176 249 166 239 135 257 247 241 205 245 227 223 228 222 215 213 208 201 184 184 192 195 195 189 192 195 192 187 189 191 197 187 188 195 200 199 205 208 214 207 202 203 208 218 229 235 239
338 206 197 305 204 147 173 249 262 119 173 246 255 249 233 230 240 235 218 212 197 201 191 195 194 191 196 195 193 191 191 202 208 200 205 201 189 191 197 213 224 201 205 205 211 224 214 228 242
189 202 231 208 223 190 206 258 253 222 170 232 264 272 262 240 236 230 223 217 220 204 204 197 196 200 192 190 180 166 190 215 204 212 211 208 211 191 206 221 219 204 214 218 202 228 212 233 244
160 182 198 224 255 165 225 235 253 251 243 271 262 241 246 257 257 243 239 220 219 219 206 207 193 195 175 167 177 199 216 219 221 214 214 208 208 200 199 217 216 197 219 233 212 214 233 246 217
94 155 229 286 350 171 284 261 262 219 245 223 247 257 238 231 256 254 236 223 216 219 204 202 205 191 190 187 191 175 185 216 221 215 222 217 216 212 210 215 225 210 215 221 218 214 234 239 170
202 182 190 214 350 346 339 289 251 242 233 252 247 245 256 228 230 240 241 223 215 219 209 203 200 199 193 192 146 99 92 78 174 203 219 218 216 217 213 210 216 207 204 222 217 214 223 245 203
211 181 179 243 98 232 30 282 280 253 252 233 254 241 246 246 241 241 237 247 217 220 215 213 201 197 196 183 185 197 202 207 196 196 211 210 203 207 207 213 213 214 207 214 209 195 213 234 248
215 151 181 170 169 38 236 335 274 275 268 256 254 254 250 240 234 237 231 234 236 209 208 201 183 184 181 183 199 201 213 218 176 179 196 203 201 210 212 212 208 219 213 230 213 200 210 224 246
146 83 55 52 84 279 187 173 256 213 209 236 273 266 261 262 261 250 228 223 234 195 192 191 185 199 177 181 197 201 212 209 185 208 203 213 211 207 213 211 213 215 214 218 218 221 232 226 227
163 137 41 15 5 234 213 194 273 270 264 253 276 292 286 283 296 286 256 224 214 178 159 99 106 65 77 106 101 183 217 227 227 231 212 224 226 218 231 207 212 220 221 224 218 224 234 234 231
186 181 156 181 194 228 156 230 252 247 281 279 284 281 294 338 324 306 246 163 107 95 88 77 78 68 61 69 63 52 46 55 55 34 346 360 345 340 360 313 242 222 218 218 226 239 247 247 237
172 215 164 110 66 63 214 290 294 315 32 20 13 7 349 9 24 29 44 50 63 65 64 80 77 66 57 57 56 51 47 51 49 41 45 48 33 30 25 24 26 24 29 20 357 260 301 314 314
185 154 183 40 149 235 266 268 250 50 45 36 21 8 357 1 25 55 53 58 57 60 61 64 66 69 64 63 58 56 49 47 48 47 38 31 26 27 31 27 27 26 27 20 15 14 13 2 13
154 185 187 147 163 169 159 255 249 99 100 60 359 11 11 17 32 57 55 57 58 55 51 54 52 56 50 48 50 52 45 44 46 44 34 27 28 24 29 24 27 24 22 19 26 33 22 24 6
219 195 206 204 231 224 130 275 177 119 93 68 32 26 32 36 44 59 59 56 52 50 45 44 47 55 50 48 51 49 45 41 45 39 29 24 29 25 25 21 23 20 18 28 32 29 24 25 12